KD7TTL Weather Reports


Display with metric or nautical units.
time (UTC)temp
F
wind
direction
speed
MPH
gust
MPH
rain 1hr
in
rain 24hr
in
rain mn
in
humidity
%
barometer
mb
20260506012004 62 170 1.0 4.0 0.00 0.00 0.00 73 1016.2
20260506011504 62 51 0.0 4.0 0.00 0.00 0.00 74 1016.2
20260506011003 62 165 1.0 8.0 0.00 0.00 0.00 74 1016.3
20260506010504 62 151 3.0 8.0 0.00 0.00 0.00 73 1016.3
20260506010012 62 158 0.0 3.0 0.00 0.00 0.00 74 1016.4
20260506005504 62 360 1.0 4.0 0.00 0.00 0.00 73 1016.4
20260506005001 62 193 1.0 8.0 0.00 0.00 0.00 73 1016.3
20260506004511 62 169 1.0 8.0 0.00 0.00 0.00 73 1016.4
20260506004006 62 171 0.0 8.0 0.00 0.00 0.00 72 1016.4
20260506003505 62 265 0.0 8.0 0.00 0.00 0.00 74 1016.4
20260506003010 62 169 2.0 6.0 0.00 0.00 0.00 73 1016.4
20260506002503 62 148 1.0 5.0 0.00 0.00 0.00 74 1016.4
20260506002002 62 22 0.0 4.0 0.00 0.00 0.00 72 1016.5
20260506001513 62 165 1.0 4.0 0.00 0.00 0.00 73 1016.5
20260506001002 62 93 0.0 6.0 0.00 0.00 0.00 74 1016.6
20260506000504 62 158 2.0 6.0 0.00 0.00 0.00 74 1016.7
20260506000012 61 325 1.0 5.0 0.00 0.00 0.00 76 1016.7
20260505235503 61 178 2.0 5.0 0.00 0.00 0.00 77 1016.8
20260505235003 61 105 1.0 5.0 0.00 0.00 0.00 76 1016.8
20260505234515 61 108 3.0 5.0 0.00 0.00 0.00 74 1016.8
20260505234003 61 178 0.0 6.0 0.00 0.00 0.00 75 1016.9
20260505233505 61 146 1.0 6.0 0.00 0.00 0.00 76 1016.9
20260505233010 61 137 1.0 5.0 0.00 0.00 0.00 75 1017.0
20260505232503 61 153 2.0 5.0 0.00 0.00 0.00 75 1017.0
20260505232002 61 47 1.0 5.0 0.00 0.00 0.00 76 1017.1
20260505231522 60 72 0.0 6.0 0.00 0.00 0.00 75 1017.0
20260505231008 61 146 3.0 8.0 0.00 0.00 0.00 76 1017.0
20260505230503 61 171 1.0 8.0 0.00 0.00 0.00 77 1017.1
20260505230021 61 165 2.0 6.0 0.00 0.00 0.00 76 1017.1
20260505225504 61 51 1.0 5.0 0.00 0.00 0.00 79 1017.2
20260505225004 60 93 1.0 5.0 0.00 0.00 0.00 79 1017.1
20260505224515 60 128 1.0 4.0 0.00 0.00 0.00 78 1017.2
20260505224005 60 115 1.0 4.0 0.00 0.00 0.00 77 1017.2
20260505223507 60 126 0.0 4.0 0.00 0.00 0.00 78 1017.2
20260505223011 60 129 1.0 5.0 0.00 0.00 0.00 77 1017.2
20260505222502 60 146 3.0 5.0 0.00 0.00 0.00 78 1017.3
20260505222003 60 126 1.0 5.0 0.00 0.00 0.00 78 1017.3
20260505221510 60 120 2.0 4.0 0.00 0.00 0.00 77 1017.3
20260505221002 60 153 1.0 2.0 0.00 0.00 0.00 79 1017.3
20260505220503 60 162 1.0 4.0 0.00 0.00 0.00 80 1017.4
20260505220017 60 178 1.0 4.0 0.00 0.00 0.00 80 1017.4
20260505215505 60 178 1.0 5.0 0.00 0.00 0.00 79 1017.4
20260505215007 59 164 2.0 5.0 0.00 0.00 0.00 79 1017.4
20260505214512 59 93 1.0 3.0 0.00 0.00 0.00 79 1017.5
20260505214002 59 9 0.0 5.0 0.00 0.00 0.00 82 1017.4
20260505213504 59 178 1.0 5.0 0.00 0.00 0.00 81 1017.5
20260505213022 59 129 1.0 4.0 0.00 0.00 0.00 80 1017.5
20260505212507 58 93 0.0 6.0 0.00 0.00 0.00 81 1017.5
20260505212007 58 150 1.0 7.0 0.00 0.00 0.00 80 1017.5
20260505211514 59 140 2.0 6.0 0.00 0.00 0.00 80 1017.5
20260505211006 58 68 1.0 5.0 0.00 0.00 0.00 81 1017.5
20260505210503 58 68 1.0 5.0 0.00 0.00 0.00 81 1017.5
20260505210017 58 146 2.0 4.0 0.00 0.00 0.00 80 1017.5
20260505205509 58 158 1.0 4.0 0.00 0.00 0.00 82 1017.6
20260505205008 58 80 1.0 5.0 0.00 0.00 0.00 81 1017.6
20260505204514 58 158 2.0 5.0 0.00 0.00 0.00 81 1017.6
20260505204004 58 108 0.0 6.0 0.00 0.00 0.00 82 1017.6
20260505203507 58 178 1.0 6.0 0.00 0.00 0.00 81 1017.6
20260505203027 58 47 0.0 3.0 0.00 0.00 0.00 82 1017.6
20260505202506 58 309 0.0 6.0 0.00 0.00 0.00 82 1017.6
20260505202006 58 41 2.0 5.0 0.00 0.00 0.00 81 1017.5
20260505201528 58 120 0.0 5.0 0.00 0.00 0.00 84 1017.5
20260505201006 57 68 1.0 5.0 0.00 0.00 0.00 83 1017.5
20260505200508 57 76 1.0 5.0 0.00 0.00 0.00 84 1017.5
20260505200022 57 61 1.0 4.0 0.00 0.00 0.00 83 1017.6
20260505195511 57 141 1.0 3.0 0.00 0.00 0.00 84 1017.6
20260505195005 57 123 1.0 3.0 0.00 0.00 0.00 84 1017.6
20260505194518 57 55 1.0 3.0 0.00 0.00 0.00 83 1017.5
20260505194010 57 153 1.0 3.0 0.00 0.00 0.00 83 1017.5
20260505193506 57 120 1.0 3.0 0.00 0.00 0.00 83 1017.5
20260505193029 57 309 0.0 3.0 0.00 0.00 0.00 84 1017.5
20260505192509 57 51 1.0 3.0 0.00 0.00 0.00 84 1017.5
20260505192003 57 153 1.0 2.0 0.00 0.00 0.00 84 1017.5
20260505191509 57 309 0.0 3.0 0.00 0.00 0.00 84 1017.4
20260505191005 57 68 1.0 5.0 0.00 0.00 0.00 83 1017.4
20260505190505 57 120 1.0 5.0 0.00 0.00 0.00 82 1017.4
20260505190006 57 144 1.0 7.0 0.00 0.00 0.00 82 1017.4
20260505185505 57 162 2.0 7.0 0.00 0.00 0.00 83 1017.4
20260505185003 57 153 1.0 6.0 0.00 0.00 0.00 85 1017.4
20260505184507 57 137 2.0 5.0 0.00 0.00 0.00 84 1017.4
20260505184002 57 139 2.0 5.0 0.00 0.00 0.00 84 1017.4
20260505183504 57 221 1.0 4.0 0.00 0.00 0.00 85 1017.4
20260505183011 57 111 1.0 4.0 0.00 0.00 0.00 86 1017.4
20260505182503 56 178 0.0 4.0 0.00 0.00 0.00 86 1017.5
20260505182003 56 153 1.0 6.0 0.00 0.00 0.00 86 1017.4
20260505181504 56 131 1.0 6.0 0.00 0.00 0.00 85 1017.4
20260505181004 56 167 2.0 5.0 0.00 0.00 0.00 85 1017.4
20260505180503 56 165 2.0 5.0 0.00 0.00 0.00 85 1017.3
20260505180003 56 76 0.0 2.0 0.00 0.00 0.00 86 1017.4
20260505175503 56 34 0.0 2.0 0.00 0.00 0.00 86 1017.4
20260505175003 56 162 0.0 2.0 0.00 0.00 0.00 86 1017.4
20260505174507 56 26 1.0 2.0 0.00 0.00 0.00 87 1017.4
20260505174003 56 137 0.0 2.0 0.00 0.00 0.00 87 1017.5
20260505173504 56 120 0.0 2.0 0.00 0.00 0.00 87 1017.4
20260505173022 55 51 0.0 2.0 0.00 0.00 0.00 87 1017.4
20260505172504 55 51 0.0 2.0 0.00 0.00 0.00 88 1017.4
20260505172012 55 178 1.0 2.0 0.00 0.00 0.00 87 1017.4
20260505171520 55 119 0.0 2.0 0.00 0.00 0.00 87 1017.3
20260505171007 55 51 1.0 3.0 0.00 0.00 0.00 86 1017.4
20260505170511 56 137 0.0 5.0 0.00 0.00 0.00 88 1017.4
20260505170024 56 144 2.0 5.0 0.00 0.00 0.00 87 1017.4
20260505165506 56 178 1.0 4.0 0.00 0.00 0.00 88 1017.4
20260505165012 56 137 1.0 4.0 0.00 0.00 0.00 87 1017.3
20260505164520 55 120 0.0 4.0 0.00 0.00 0.00 87 1017.3
20260505164008 55 137 1.0 4.0 0.00 0.00 0.00 88 1017.3
20260505163508 55 162 0.0 4.0 0.00 0.00 0.00 88 1017.2
20260505163029 55 41 0.0 4.0 0.00 0.00 0.00 87 1017.2
20260505162506 55 221 0.0 4.0 0.00 0.00 0.00 87 1017.2
20260505162011 55 209 0.0 4.0 0.00 0.00 0.00 88 1017.3
20260505161520 55 142 1.0 4.0 0.00 0.00 0.00 88 1017.2
20260505161010 55 178 0.0 4.0 0.00 0.00 0.00 88 1017.2
20260505160507 55 128 1.0 5.0 0.00 0.00 0.00 87 1017.1
20260505153023 54 51 0.0 2.0 0.00 0.00 0.00 89 1017.0
20260505152509 54 51 1.0 2.0 0.00 0.00 0.00 89 1017.0
20260505152010 54 205 1.0 2.0 0.00 0.00 0.00 89 1017.0
20260505151523 54 51 0.0 4.0 0.00 0.00 0.00 90 1016.9
20260505151010 53 153 1.0 4.0 0.00 0.00 0.00 90 1016.8
20260505150509 53 93 0.0 2.0 0.00 0.00 0.00 90 1016.8
20260505140510 51 221 0.0 2.0 0.00 0.00 0.00 94 1016.4
20260505125003 48 68 0.0 1.0 0.00 0.00 0.00 93 1015.7
20260505124505 47 76 0.0 2.0 0.00 0.00 0.00 93 1015.6
20260505124003 47 221 0.0 2.0 0.00 0.00 0.00 93 1015.6
20260505123504 47 178 0.0 1.0 0.00 0.00 0.00 93 1015.6
20260505123002 47 51 0.0 1.0 0.00 0.00 0.00 92 1015.5
20260505122503 47 309 0.0 1.0 0.00 0.00 0.00 92 1015.4
20260505122003 46 51 0.0 1.0 0.00 0.00 0.00 92 1015.4
20260505121507 46 68 0.0 2.0 0.00 0.00 0.00 91 1015.4
20260505121003 46 68 0.0 2.0 0.00 0.00 0.00 91 1015.4
20260505120503 46 51 0.0 1.0 0.00 0.00 0.00 91 1015.4
20260505120003 46 51 0.0 1.0 0.00 0.00 0.00 90 1015.3
20260505115503 46 76 0.0 1.0 0.00 0.00 0.00 90 1015.2
20260505115003 46 93 0.0 1.0 0.00 0.00 0.00 89 1015.2
20260505114504 46 137 0.0 1.0 0.00 0.00 0.00 89 1015.1
20260505114004 46 68 0.0 1.0 0.00 0.00 0.00 89 1015.1
20260505113502 47 68 0.0 1.0 0.00 0.00 0.00 89 1015.1
20260505113012 47 93 0.0 1.0 0.00 0.00 0.00 89 1015.1
20260505112502 47 93 0.0 1.0 0.00 0.00 0.00 89 1015.0
20260505112005 47 51 0.0 1.0 0.00 0.00 0.00 89 1015.0
20260505111502 47 68 0.0 1.0 0.00 0.00 0.00 89 1015.0
20260505111002 47 51 0.0 1.0 0.00 0.00 0.00 89 1014.9
20260505110503 47 51 0.0 1.0 0.00 0.00 0.00 88 1014.9
20260505102011 48 51 0.0 1.0 0.00 0.00 0.00 88 1014.6
20260505101505 48 9 0.0 1.0 0.00 0.00 0.00 88 1014.5
20260505101004 48 51 0.0 1.0 0.00 0.00 0.00 88 1014.5
20260505100503 48 51 0.0 1.0 0.00 0.00 0.00 88 1014.4
20260505100004 49 51 0.0 1.0 0.00 0.00 0.00 87 1014.5
20260505095507 49 265 0.0 1.0 0.00 0.00 0.00 88 1014.4
20260505095002 49 93 0.0 1.0 0.00 0.00 0.00 87 1014.4
20260505094521 49 9 0.0 1.0 0.00 0.00 0.00 88 1014.4
20260505094010 49 51 0.0 1.0 0.00 0.00 0.00 88 1014.3
20260505093507 49 9 0.0 1.0 0.00 0.00 0.00 87 1014.2
20260505093030 49 51 0.0 1.0 0.00 0.00 0.00 86 1014.1
20260505092507 50 51 0.0 0.0 0.00 0.00 0.00 86 1014.1
20260505092011 50 68 0.0 1.0 0.00 0.00 0.00 86 1014.1
20260505091528 50 9 0.0 1.0 0.00 0.00 0.00 86 1014.0
20260505091014 50 309 0.0 1.0 0.00 0.00 0.00 86 1014.0
20260505090507 50 309 0.0 1.0 0.00 0.00 0.00 85 1014.1
20260505090024 50 93 0.0 1.0 0.00 0.00 0.00 85 1014.0
20260505085510 51 93 0.0 1.0 0.00 0.00 0.00 84 1014.0
20260505085011 51 51 0.0 1.0 0.00 0.00 0.00 84 1013.9
20260505084524 51 9 0.0 0.0 0.00 0.00 0.00 84 1013.8
20260505084009 51 265 0.0 1.0 0.00 0.00 0.00 83 1013.7
20260505083508 51 51 0.0 1.0 0.00 0.00 0.00 84 1013.7
20260505083024 51 51 0.0 1.0 0.00 0.00 0.00 82 1013.7
20260505082508 52 93 0.0 1.0 0.00 0.00 0.00 82 1013.6
20260505082007 52 9 0.0 1.0 0.00 0.00 0.00 82 1013.6
20260505081532 52 221 0.0 1.0 0.00 0.00 0.00 82 1013.6
20260505081007 52 51 0.0 1.0 0.00 0.00 0.00 82 1013.7
20260505080510 52 51 0.0 1.0 0.00 0.00 0.00 82 1013.6
20260505080026 53 68 0.0 1.0 0.00 0.00 0.00 81 1013.6
20260505075508 53 93 0.0 1.0 0.00 0.00 0.00 81 1013.6
20260505075008 53 325 0.0 1.0 0.00 0.00 0.00 81 1013.6
20260505074525 53 68 0.0 1.0 0.00 0.00 0.00 79 1013.6
20260505074008 53 51 0.0 1.0 0.00 0.00 0.00 80 1013.6
20260505073511 53 93 0.0 2.0 0.00 0.00 0.00 81 1013.4
20260505073035 54 93 0.0 2.0 0.00 0.00 0.00 80 1013.5
20260505072511 54 137 0.0 1.0 0.00 0.00 0.00 79 1013.3
20260505072010 54 68 0.0 1.0 0.00 0.00 0.00 79 1013.2
20260505071526 54 9 0.0 1.0 0.00 0.00 0.00 79 1013.1
20260505071007 55 265 0.0 1.0 0.00 0.00 0.00 78 1012.9
20260505070509 55 51 0.0 1.0 0.00 0.00 0.00 78 1012.9
20260505070024 55 93 0.0 1.0 0.00 0.00 0.00 78 1012.9
20260505065510 55 51 0.0 1.0 0.00 0.00 0.00 78 1012.9
20260505065009 55 309 0.0 2.0 0.00 0.00 0.00 77 1012.9
20260505064525 56 265 0.0 2.0 0.00 0.00 0.00 77 1012.9
20260505064009 56 9 0.0 1.0 0.00 0.00 0.00 75 1012.9
20260505063506 56 9 0.0 1.0 0.00 0.00 0.00 75 1012.8
20260505063025 57 309 0.0 1.0 0.00 0.00 0.00 74 1012.8
20260505062510 57 51 0.0 1.0 0.00 0.00 0.00 73 1012.7
20260505062012 58 309 0.0 1.0 0.00 0.00 0.00 73 1012.5
20260505061523 58 265 0.0 1.0 0.00 0.00 0.00 72 1012.4
20260505061011 58 9 0.0 1.0 0.00 0.00 0.00 72 1012.4
20260505060510 58 309 0.0 1.0 0.00 0.00 0.00 70 1012.3
20260505060031 59 51 0.0 1.0 0.00 0.00 0.00 70 1012.3
20260505055510 59 309 0.0 1.0 0.00 0.00 0.00 71 1012.3
20260505055013 59 178 0.0 2.0 0.00 0.00 0.00 71 1012.2
20260505054536 59 126 0.0 2.0 0.00 0.00 0.00 68 1012.2
20260505054012 60 309 0.0 1.0 0.00 0.00 0.00 67 1012.2
20260505053511 60 51 0.0 1.0 0.00 0.00 0.00 67 1012.1
20260505053027 60 51 0.0 1.0 0.00 0.00 0.00 67 1012.1
20260505052508 60 325 0.0 3.0 0.00 0.00 0.00 68 1012.1
20260505052015 60 9 0.0 6.0 0.00 0.00 0.00 68 1011.9
20260505051524 60 309 0.0 6.0 0.00 0.00 0.00 68 1012.0
20260505051009 60 325 1.0 5.0 0.00 0.00 0.00 68 1012.1
20260505050513 60 9 1.0 5.0 0.00 0.00 0.00 68 1012.1
20260505041524 62 34 0.0 2.0 0.00 0.00 0.00 67 1012.0
20260505041009 63 9 0.0 2.0 0.00 0.00 0.00 67 1011.9
20260505040503 63 34 1.0 2.0 0.00 0.00 0.00 66 1011.9
20260505040002 64 51 0.0 1.0 0.00 0.00 0.00 65 1011.8
20260505035505 64 292 0.0 2.0 0.00 0.00 0.00 65 1011.7
20260505035002 65 282 0.0 2.0 0.00 0.00 0.00 64 1011.6
20260505034504 66 9 0.0 2.0 0.00 0.00 0.00 61 1011.5
20260505034003 66 9 0.0 1.0 0.00 0.00 0.00 60 1011.4
20260505033503 67 9 0.0 1.0 0.00 0.00 0.00 59 1011.4
20260505033007 67 51 0.0 1.0 0.00 0.00 0.00 58 1011.4
20260505032507 67 93 0.0 1.0 0.00 0.00 0.00 58 1011.3
20260505032005 68 9 0.0 2.0 0.00 0.00 0.00 55 1011.3
20260505031503 68 265 0.0 2.0 0.00 0.00 0.00 54 1011.2
20260505031007 68 265 0.0 2.0 0.00 0.00 0.00 54 1011.1
20260505030503 69 9 0.0 2.0 0.00 0.00 0.00 53 1011.1
20260505030004 69 51 0.0 3.0 0.00 0.00 0.00 52 1011.0
20260505025504 70 51 0.0 3.0 0.00 0.00 0.00 52 1011.0
20260505025005 70 34 0.0 3.0 0.00 0.00 0.00 52 1010.9
20260505024504 70 334 1.0 3.0 0.00 0.00 0.00 51 1010.9
20260505024006 71 51 1.0 3.0 0.00 0.00 0.00 50 1010.9
20260505023502 71 51 0.0 3.0 0.00 0.00 0.00 51 1010.9
20260505023003 71 80 0.0 4.0 0.00 0.00 0.00 51 1010.8
20260505022503 72 44 1.0 6.0 0.00 0.00 0.00 50 1010.7
20260505022003 72 325 1.0 6.0 0.00 0.00 0.00 49 1010.7
20260505021503 73 265 1.0 3.0 0.00 0.00 0.00 49 1010.7
20260505021003 73 38 0.0 3.0 0.00 0.00 0.00 47 1010.7
20260505020503 73 51 0.0 4.0 0.00 0.00 0.00 45 1010.6
20260505020003 73 51 1.0 4.0 0.00 0.00 0.00 44 1010.4
20260505015503 74 70 1.0 4.0 0.00 0.00 0.00 44 1010.5
20260505015011 74 59 0.0 4.0 0.00 0.00 0.00 45 1010.5
20260505014523 74 153 0.0 4.0 0.00 0.00 0.00 45 1010.5
20260505014009 74 93 0.0 3.0 0.00 0.00 0.00 45 1010.4
20260505013506 74 126 0.0 3.0 0.00 0.00 0.00 46 1010.5
20260505013026 74 239 0.0 4.0 0.00 0.00 0.00 46 1010.5
20260505012507 74 291 0.0 4.0 0.00 0.00 0.00 46 1010.6